Location: Unspecified
(49.2170°N, 0.0000°E)
Time: 14:00:42
(UTC+00:00)

Transit 2A - Pass Details

Date: 17 June 2019
Orbit: 596 x 962 km, 66.7° (Epoch: 16 August)

Event Time Altitude Azimuth Distance (km) Brightness Sun altitude
Rises 06:47:19 0° 313° (NW) 3,607 9.1 24.9°
Reaches altitude 10° 06:51:06 10° 335° (NNW) 2,612 8.7 25.5°
Maximum altitude 06:54:39 16° 11° (N) 2,165 8.7 26.1°
Drops below altitude 10° 06:58:05 10° 48° (NE) 2,481 9.6 26.7°
Sets 07:01:31 0° 70° (ENE) 3,335 10.5 27.2°
